Weather History for Garden City, KS

Change the Weather History Date:

Saturday, February 16, 2013

  Actual Average Record
Temperature  
Mean Temperature 39 °F 35 °F  
Max Temperature 63 °F 48 °F 81 °F (2011)
Min Temperature 14 °F 22 °F -6 °F (1993)
Degree Days  
Heating Degree Days 26 30  
Month to date heating degree days 430 509  
Since 1 July heating degree days 3454 3689  
Cooling Degree Days 0 0  
Month to date cooling degree days 0 0  
Year to date cooling degree days 0 0  
Moisture  
Dew Point 17 °F    
Average Humidity 56    
Maximum Humidity 92    
Minimum Humidity 20    
Precipitation  
Precipitation 0.00 in 0.02 in 0.17 in (1975)
Month to date precipitation T 0.28  
Year to date precipitation 0.13 0.62  
Sea Level Pressure  
Sea Level Pressure 30.18 in    
Wind  
Wind Speed 9 mph (WNW)    
Max Wind Speed 24 mph    
Max Gust Speed 36 mph    
Visibility 10 miles    
Events      
T = Trace of Precipitation, MM = Missing Value Source: NWS Daily Summary

Daily Weather History Graph

Daily Weather History Graph

Search for Another Location

Airport:

Trip Planner

Search our weather history database for the weather conditions in past years. The results will help you decide how hot, cold, wet, or windy it might be!

Date:

Astronomy

Feb. 16, 2013 Rise Set
Actual Time 7:31 AM CST 6:23 PM CST
Civil Twilight 7:04 AM CST 6:50 PM CST
Nautical Twilight 6:33 AM CST 7:20 PM CST
Astronomical Twilight 6:03 AM CST 7:51 PM CST
Moon 10:52 AM CST (2/16) 12:17 AM CST (2/16)
Length of Visible Light 11h 45m
Length of Day
10h 51m
Waxing Crescent, 39% of the Moon is Illuminated
Feb 16
Waxing Crescent
Feb 17
First Quarter
Feb 25
Full
Mar 4
Last Quarter
Mar 11
New

Hourly Weather History & Observations

Time (CST) Temp. Windchill Dew Point Humidity Pressure Visibility Wind Dir Wind Speed Gust Speed Precip Events Conditions
12:54 AM 19.0 °F 9.0 °F 14.0 °F 81% 30.43 in 10.0 mi NW 8.1 mph - N/A   Clear
1:54 AM 18.0 °F 11.1 °F 14.0 °F 84% 30.41 in 10.0 mi WNW 4.6 mph - N/A   Clear
2:54 AM 17.1 °F 7.6 °F 12.9 °F 84% 30.39 in 10.0 mi West 6.9 mph - N/A   Clear
3:54 AM 17.1 °F 10.0 °F 14.0 °F 88% 30.35 in 10.0 mi SW 4.6 mph - N/A   Overcast
4:54 AM 15.1 °F 6.4 °F 10.9 °F 84% 30.34 in 10.0 mi SW 5.8 mph - N/A   Clear
5:54 AM 18.0 °F 7.7 °F 15.1 °F 88% 30.32 in 10.0 mi SW 8.1 mph - N/A   Clear
6:54 AM 18.0 °F 6.9 °F 14.0 °F 84% 30.30 in 10.0 mi SW 9.2 mph - N/A   Clear
7:54 AM 19.0 °F 9.0 °F 14.0 °F 81% 30.29 in 10.0 mi WSW 8.1 mph - N/A   Clear
8:54 AM 23.0 °F 11.7 °F 17.1 °F 78% 30.27 in 10.0 mi WSW 11.5 mph - N/A   Clear
9:54 AM 33.1 °F 22.6 °F 17.1 °F 52% 30.23 in 10.0 mi West 16.1 mph - N/A   Clear
10:54 AM 44.1 °F 37.4 °F 19.0 °F 37% 30.19 in 10.0 mi West 13.8 mph - N/A   Clear
11:54 AM 55.0 °F - 18.0 °F 23% 30.15 in 10.0 mi NW 19.6 mph 27.6 mph N/A   Clear
12:54 PM 59.0 °F - 21.0 °F 23% 30.12 in 10.0 mi NNW 23.0 mph 27.6 mph N/A   Clear
1:54 PM 60.1 °F - 19.9 °F 21% 30.09 in 10.0 mi NW 18.4 mph 26.5 mph N/A   Clear
2:54 PM 61.0 °F - 19.9 °F 21% 30.06 in 10.0 mi WNW 15.0 mph - N/A   Scattered Clouds
3:54 PM 61.0 °F - 21.0 °F 21% 30.05 in 10.0 mi NNW 12.7 mph 20.7 mph N/A   Scattered Clouds
4:54 PM 60.1 °F - 19.9 °F 21% 30.04 in 10.0 mi NW 12.7 mph - N/A   Clear
5:54 PM 55.9 °F - 19.9 °F 25% 30.04 in 10.0 mi NNW 6.9 mph - N/A   Clear
6:54 PM 48.9 °F - 19.0 °F 31% 30.06 in 10.0 mi NNW 6.9 mph - N/A   Clear
7:54 PM 41.0 °F 37.1 °F 18.0 °F 40% 30.07 in 10.0 mi North 5.8 mph - N/A   Clear
8:54 PM 37.0 °F 33.3 °F 18.0 °F 46% 30.08 in 10.0 mi WSW 4.6 mph - N/A   Clear
9:54 PM 41.0 °F 38.0 °F 18.0 °F 40% 30.04 in 10.0 mi WNW 4.6 mph - N/A   Clear
10:54 PM 39.9 °F - 18.0 °F 41% 30.01 in 10.0 mi Calm Calm - N/A   Clear
11:54 PM 36.0 °F - 18.0 °F 48% 29.98 in 10.0 mi Calm Calm - N/A   Clear